YAOGAN-41

Last updated on Fri Dec 19 2025 00:02:54 GMT+0000 (Coordinated Universal Time)

1 58582U 23197A 25352.64972186 -.00000334 00000+0 00000+0 0 9999 2 58582 3.4687 310.6837 0010019 197.3716 296.5082 1.00268517 7516
UTC large
Height (km)
Speed (km/s)
/
Latitude / Longitude
Inclination (degrees)
Orbital Period (minutes)
Azimuth
Elevation
Range (km)
Doppler Factor

Next 0 passes for location: London (51.5072 / 0.1276)

Sorry there are no passes over London.